This is the latest recevied weather packets stored in our database for station/object N0HOT. If no packets are shown the sender has not sent any weather packets the latest 10 day(s).
| Time | Temp. | Humidity | Pressure | Rain* | Wind** | Luminosity | Snow |
|---|---|---|---|---|---|---|---|
| 1777117819 | 4.44° C | 85% | 1017 hPa | 0 mm | - | 25 W/m² | - |
| 1777117516 | 4.44° C | 85% | 1017 hPa | 0 mm | - | 19 W/m² | - |
| 1777117215 | 4.44° C | 85% | 1017 hPa | 0 mm | - | 19 W/m² | - |
| 1777116914 | 4.44° C | 85% | 1016.7 hPa | 0 mm | - | 18 W/m² | - |
| 1777116610 | 3.89° C | 85% | 1016.7 hPa | 0 mm | - | 13 W/m² | - |
| 1777116306 | 3.89° C | 85% | 1016.7 hPa | 0 mm | - | 9 W/m² | - |
| 1777116002 | 3.89° C | 85% | 1016.7 hPa | 0 mm | - | 5 W/m² | - |
| 1777115696 | 3.89° C | 85% | 1017 hPa | 0 mm | - | 3 W/m² | - |
| 1777115393 | 3.89° C | 84% | 1016.3 hPa | 0 mm | - | 1 W/m² | - |
| 1777115089 | 3.89° C | 84% | 1016.3 hPa | 0 mm | - | 1 W/m² | - |
| 1777114786 | 3.89° C | 84% | 1016 hPa | 0 mm | - | 0 W/m² | - |
| 1777114482 | 3.89° C | 84% | 1016 hPa | 0 mm | - | 0 W/m² | - |
| 1777114177 | 3.89° C | 84% | 1016.3 hPa | 0 mm | - | 0 W/m² | - |
| 1777113873 | 3.89° C | 83% | 1016 hPa | 0 mm | - | 0 W/m² | - |
| 1777113572 | 3.89° C | 83% | 1016 hPa | 0 mm | - | 0 W/m² | - |
| 1777113267 | 4.44° C | 83% | 1016 hPa | 0 mm | - | 0 W/m² | - |
| 1777112962 | 4.44° C | 83% | 1016 hPa | 0 mm | - | 0 W/m² | - |
| 1777112660 | 4.44° C | 83% | 1016 hPa | 0 mm | - | 0 W/m² | - |
| 1777112355 | 4.44° C | 83% | 1016 hPa | 0 mm | - | 0 W/m² | - |
| 1777112053 | 4.44° C | 83% | 1015.6 hPa | 0 mm | - | 0 W/m² | - |
| 1777111749 | 4.44° C | 82% | 1016 hPa | 0 mm | - | 0 W/m² | - |
| 1777111445 | 4.44° C | 82% | 1015.6 hPa | 0 mm | - | 0 W/m² | - |
| 1777111141 | 4.44° C | 82% | 1015.6 hPa | 0 mm | - | 0 W/m² | - |
| 1777110838 | 4.44° C | 82% | 1015.6 hPa | 0 mm | - | 0 W/m² | - |
| 1777110535 | 5° C | 82% | 1015.3 hPa | 0 mm | - | 0 W/m² | - |
* Rain latest hour (hover to see other rain measurements)
** Current wind speed in m/s (hover to see current wind gust speed)